Location: Bouysse
(45.3674°N, 1.8947°E)
Time: 20:42:58
(UTC+00:00)

SL-16 R/B - Pass Details

Date: 07 June 2020
Orbit: 986 x 1006 km, 99.5° (Epoch: 09 July)

Event Time Altitude Azimuth Distance (km) Brightness Sun altitude
Exits shadow 01:55:28 21° 185° (S) 2,052 3.7 -16.2°
Maximum altitude 01:59:36 58° 259° (WSW) 1,141 2.6 -15.9°
Drops below altitude 10° 02:05:43 10° 338° (NNW) 2,762 5.4 -15.3°
Sets 02:08:15 0° 342° (NNW) 3,718 6.1 -15.1°
